Погода в Устимовке

Украина / Полтавская область     49°31′14″N   33°11′24″E
темп.,
°C
ветер,
м/с
пор.,
м/с
влажн.,
%
обл.,
%
осадки,
мм/ч
давл.,
гПа
погр.,
м
9 марта, вт
вт923:00−2зсз5107966 0.0 1014595
02:00−4сз698546 0.0 1015523
05:00−5сз697534 0.0 1017597
08:00−4сз576517 0.0 1018770
11:00−2сз575967 0.1 10201199
14:00−2сз675483 0.1 10211222
17:00−4ссз576240 0.0 1021913
20:00−5ссз467025 0.0 1024660
10 марта, ср
ср1023:00−5с35652 0.0 1025669
02:00−6ссз23661 0.0 1026431
05:00−6ссз237235 0.0 1027333
08:00−6ссв226750 0.0 1028399
11:00−3ссв214697 0.0 1028863
14:00−1св113895 0.0 10271063
17:00−2всв224137 0.0 10261022
20:00−3всв225236 0.0 102758
11 марта, чт
чт1123:00−4всв25550 0.0 1028203
02:00−4в24540 0.0 1028155
05:00−5всв24560 0.0 1028136
08:00−4в34480 0.0 1029418
11:00−1вюв333648 0.0 10291044
14:000вюв333674 0.0 10291421
17:00−1в234468 0.0 1028249
20:00−3вюв485958 0.0 1029346
12 марта, пт
пт1223:00−4юв58560 0.0 1030468
02:00−5юв57500 0.0 1030471
05:00−5юв58420 0.0 1031446
08:00−5ююв683645 0.0 1031535
11:00−2ююв7932100 0.0 1029849
14:00−1ююв7930100 0.0 10291003
17:00−1ю7103796 0.0 1027953
20:00−2ю7113598 0.1 10271052
13 марта, сб
сб1323:00−2ю81353100 0.0 1027947
02:00−4ю81382100 0.2 1026713
05:00−4ю71291100 0.8 1025599
08:00−2ю71290100 1.2 1025562
11:00+1ююз71189100 0.8 1025717
14:00+3ююз81283100 1.1 1024812
17:00+2ю51181100 0.0 1023774
20:00+1ю5127399 0.0 1023387